This is the latest recevied weather packets stored in our database for station/object KF5WCW-1. If no packets are shown the sender has not sent any weather packets the latest 10 day(s).
| Time | Temp. | Humidity | Pressure | Rain* | Wind** | Luminosity | Snow |
|---|---|---|---|---|---|---|---|
| 1777653678 | 3.89° C | 84% | 0 hPa | 0 mm | - | - | - |
| 1777653378 | 3.89° C | 83% | 0 hPa | 0 mm | - | - | - |
| 1777653078 | 3.89° C | 81% | 0 hPa | 0 mm | - | - | - |
| 1777652778 | 3.89° C | 87% | 0 hPa | 0 mm | - | - | - |
| 1777652478 | 3.33° C | 88% | 0 hPa | 0 mm | - | - | - |
| 1777652178 | 3.33° C | 87% | 0 hPa | 0 mm | - | - | - |
| 1777651878 | 3.33° C | 88% | 0 hPa | 0 mm | - | - | - |
| 1777651578 | 3.89° C | 89% | 0 hPa | 0 mm | - | - | - |
| 1777651278 | 4.44° C | 88% | 0 hPa | 0 mm | - | - | - |
| 1777650978 | 4.44° C | 84% | 0 hPa | 0 mm | - | - | - |
| 1777650678 | 4.44° C | 80% | 0 hPa | 0 mm | - | - | - |
| 1777650378 | 3.89° C | 77% | 0 hPa | 0 mm | - | - | - |
| 1777650078 | 4.44° C | 83% | 0 hPa | 0 mm | - | - | - |
| 1777649778 | 4.44° C | 83% | 0 hPa | 0 mm | - | - | - |
| 1777649478 | 3.89° C | 85% | 0 hPa | 0 mm | - | - | - |
| 1777649178 | 3.89° C | 86% | 0 hPa | 0 mm | - | - | - |
| 1777648878 | 3.89° C | 88% | 0 hPa | 0 mm | - | - | - |
| 1777648278 | 3.33° C | 89% | 0 hPa | 0 mm | - | - | - |
| 1777647978 | 3.33° C | 90% | 0 hPa | 0 mm | - | - | - |
| 1777647678 | 3.33° C | 90% | 0 hPa | 0 mm | - | - | - |
| 1777647378 | 2.78° C | 90% | 0 hPa | 0 mm | - | - | - |
| 1777647079 | 2.78° C | 90% | 0 hPa | 0 mm | - | - | - |
| 1777646779 | 2.78° C | 93% | 0 hPa | 0 mm | - | - | - |
| 1777646478 | 2.22° C | 94% | 0 hPa | 0 mm | - | - | - |
| 1777646179 | 1.67° C | 95% | 0 hPa | 0 mm | - | - | - |
* Rain latest hour (hover to see other rain measurements)
** Current wind speed in m/s (hover to see current wind gust speed)